Location: Beuerbach
(48.1459°N, 10.9174°E)
Time: 00:18:34
(UTC+00:00)

Meteor 1-21 - Pass Details

Date: 07 August 2024
Orbit: 845 x 885 km, 81.2° (Epoch: 09 September)

Event Time Altitude Azimuth Distance (km) Brightness Sun altitude
Rises 00:53:11 0° 348° (NNW) 3,418 8.2 -22.4°
Reaches altitude 10° 00:55:36 10° 348° (NNW) 2,478 7.4 -22.2°
Maximum altitude 01:01:14 90° 234° (SW) 854 4.1 -21.8°
Enters shadow 01:03:26 39° 170° (S) 1,250 4.7 -21.7°
